Date [UTC],CO2 [ppm],CH4 [ppb],N2O [ppb],SF6 [ppt]
2015-10-22 17:00:00,421.25,2049.23,332.35,9.78
2015-10-22 18:00:00,429.24,2056.29,332.42,10.12
2015-10-22 19:00:00,437.69,2070.36,333.32,9.94
2015-10-22 20:00:00,445.56,2077.57,332.98,9.98
2015-10-22 21:00:00,451.36,2106.82,332.06,10.19
2015-10-22 22:00:00,446.09,2137.73,334.28,10.24
2015-10-22 23:00:00,455.98,2161.98,333.12,10.43
2015-10-22 24:00:00,463.43,2175.28,333.09,10.44
2015-10-23 01:00:00,468.21,2179.68,333.42,10.54
2015-10-23 02:00:00,473.22,2176.89,333.77,10.46
2015-10-23 03:00:00,472.62,2159.27,334.39,10.23
2015-10-23 04:00:00,466.19,2161.92,333.26,10.31
2015-10-23 05:00:00,462.98,2182.14,331.91,10.14
2015-10-23 06:00:00,480.13,2194.43,333.85,10.18
2015-10-23 07:00:00,479.08,2176.53,334.22,10.21
2015-10-23 08:00:00,478.46,2203.92,333.64,10.03
2015-10-23 09:00:00,447.02,2134.38,332.46,9.74
2015-10-23 10:00:00,441.78,2154.36,332.47,10.40
2015-10-23 11:00:00,432.43,2140.08,332.53,10.34
2015-10-23 12:00:00,428.30,2121.33,332.67,10.48
2015-10-23 13:00:00,422.48,2100.19,332.68,10.33
2015-10-23 14:00:00,421.77,2111.75,332.70,10.61
2015-10-23 15:00:00,422.67,2124.26,333.86,10.68
2015-10-23 16:00:00,426.90,2148.62,333.24,10.76
2015-10-23 17:00:00,431.51,2162.48,332.42,10.92
2015-10-23 18:00:00,435.52,2150.94,333.05,11.23
2015-10-23 19:00:00,452.11,2185.13,334.19,11.23
2015-10-23 20:00:00,453.66,2244.40,332.58,11.13
2015-10-23 21:00:00,456.65,2263.59,332.66,10.99
2015-10-23 22:00:00,460.63,2246.01,333.68,10.90
2015-10-23 23:00:00,472.13,2246.75,334.00,10.90
2015-10-23 24:00:00,460.36,2203.40,333.07,10.52
2015-10-24 01:00:00,456.85,2157.93,332.30,10.30
2015-10-24 02:00:00,451.49,2130.86,332.51,10.34
2015-10-24 03:00:00,449.21,2112.04,332.56,10.16
2015-10-24 04:00:00,450.97,2088.90,331.71,10.08
2015-10-24 05:00:00,454.72,2078.84,332.88,10.05
2015-10-24 06:00:00,469.17,2091.87,332.07,10.20
2015-10-24 07:00:00,450.60,2075.48,331.42,12.26
2015-10-24 08:00:00,458.51,2100.13,332.38,10.79
2015-10-24 09:00:00,448.17,2106.53,332.42,10.03
2015-10-24 10:00:00,436.61,2118.79,332.32,9.70
2015-10-24 11:00:00,429.02,2094.46,332.01,9.86
2015-10-24 12:00:00,422.17,2024.65,332.61,9.70
2015-10-24 13:00:00,415.88,2008.38,331.37,9.84
2015-10-24 14:00:00,414.87,2012.55,331.75,9.93
2015-10-24 15:00:00,413.17,2015.46,331.16,9.87
2015-10-24 16:00:00,409.99,2032.79,332.46,9.91
2015-10-24 17:00:00,419.02,2066.78,331.34,9.95
2015-10-24 18:00:00,430.56,2070.72,332.25,9.97
2015-10-24 19:00:00,436.25,2093.97,332.34,10.08
2015-10-24 20:00:00,443.83,2102.38,332.42,9.92
2015-10-24 21:00:00,453.88,2202.01,332.43,9.92
2015-10-24 22:00:00,455.50,2162.90,332.79,9.97
2015-10-24 23:00:00,458.11,2153.36,332.92,10.06
2015-10-24 24:00:00,453.24,2191.54,333.17,9.70
2015-10-25 01:00:00,468.51,2209.46,333.88,9.80
2015-10-25 02:00:00,453.75,2094.03,332.02,9.73
2015-10-25 03:00:00,452.72,2080.24,332.81,9.70
2015-10-25 04:00:00,469.06,2096.25,334.61,9.64
2015-10-25 05:00:00,465.07,2106.82,333.67,9.66
2015-10-25 06:00:00,467.59,2086.83,334.15,9.62
2015-10-25 07:00:00,469.69,2066.36,333.20,9.71
2015-10-25 08:00:00,454.36,2052.43,331.99,9.60
2015-10-25 09:00:00,449.44,2045.42,332.20,9.56
2015-10-25 10:00:00,437.92,2090.79,330.97,9.53
2015-10-25 11:00:00,428.45,2006.48,331.09,9.06
2015-10-25 12:00:00,420.40,1962.30,331.08,9.34
2015-10-25 13:00:00,417.49,1984.74,331.31,9.58
2015-10-25 14:00:00,415.65,1977.41,330.84,9.55
2015-10-25 15:00:00,417.16,2075.81,332.38,9.86
2015-10-25 16:00:00,420.67,2111.55,333.85,9.83
2015-10-25 17:00:00,428.65,2143.79,332.39,9.94
2015-10-25 18:00:00,437.14,2160.95,333.81,10.10
2015-10-25 19:00:00,450.82,2165.42,334.26,10.21
2015-10-25 20:00:00,457.12,2212.90,333.58,10.10
2015-10-25 21:00:00,466.08,2232.45,334.35,10.15
2015-10-25 22:00:00,465.03,2240.37,332.71,10.22
2015-10-25 23:00:00,477.51,2254.23,334.37,10.15
2015-10-25 24:00:00,476.70,2214.99,332.90,10.04
2015-10-26 01:00:00,458.43,2133.65,332.48,9.66
2015-10-26 02:00:00,461.46,2091.02,332.95,9.65
2015-10-26 03:00:00,463.87,2078.20,332.90,9.55
2015-10-26 04:00:00,465.28,2107.23,333.22,9.62
2015-10-26 05:00:00,453.85,2032.53,333.13,9.47
2015-10-26 06:00:00,450.96,2009.77,331.92,9.44
2015-10-26 07:00:00,461.81,2033.02,332.35,9.74
2015-10-26 08:00:00,458.92,2052.72,333.71,9.49
2015-10-26 09:00:00,448.07,2024.55,332.78,9.43
2015-10-26 10:00:00,441.16,2034.85,331.61,9.39
2015-10-26 11:00:00,434.14,2047.31,331.50,9.61
2015-10-26 12:00:00,425.17,1980.79,330.96,9.46
2015-10-26 13:00:00,420.88,1964.42,330.99,9.43
2015-10-26 14:00:00,415.54,1992.98,331.41,9.67
2015-10-26 15:00:00,417.45,2001.20,331.36,9.58
2015-10-26 16:00:00,422.63,2042.27,330.91,9.73
2015-10-26 17:00:00,425.92,2036.72,332.23,9.45
2015-10-26 18:00:00,433.63,2046.27,331.31,9.48
2015-10-26 19:00:00,448.77,2076.32,332.17,9.83
2015-10-26 20:00:00,451.11,2057.70,331.29,9.71
2015-10-26 21:00:00,454.38,2093.10,331.87,9.63
2015-10-26 22:00:00,451.09,2192.58,331.46,9.67
2015-10-26 23:00:00,449.65,2118.68,331.29,9.53
2015-10-26 24:00:00,443.98,2047.10,331.11,9.60
2015-10-27 01:00:00,442.07,2024.08,331.41,9.48
2015-10-27 02:00:00,437.37,2014.12,332.25,9.49
2015-10-27 03:00:00,440.34,1999.44,331.73,9.49
2015-10-27 04:00:00,439.55,1984.93,332.21,9.50
2015-10-27 05:00:00,445.00,2006.58,331.64,9.51
2015-10-27 06:00:00,451.61,2014.49,331.75,9.44
2015-10-27 07:00:00,457.36,2025.95,332.05,9.45
2015-10-27 08:00:00,457.01,2085.98,333.37,9.62
2015-10-27 09:00:00,435.88,2017.33,332.36,9.22
2015-10-27 10:00:00,424.95,1951.60,330.17,9.25
2015-10-27 11:00:00,421.54,1996.15,330.16,9.40
2015-10-27 12:00:00,418.76,1972.78,331.89,9.67
2015-10-27 13:00:00,418.51,1996.38,331.87,9.70
2015-10-27 14:00:00,422.74,2062.81,332.33,10.19
2015-10-27 15:00:00,426.37,2093.72,331.93,10.59
2015-10-27 16:00:00,437.89,2181.84,333.52,14.10
2015-10-27 17:00:00,448.76,2231.05,333.62,11.63
2015-10-27 18:00:00,457.73,2250.49,334.84,12.04
2015-10-27 19:00:00,466.36,2269.67,335.64,11.60
2015-10-27 20:00:00,474.28,2271.62,335.68,11.35
2015-10-27 21:00:00,478.12,2296.62,337.93,11.19
2015-10-27 22:00:00,497.49,2317.10,337.41,11.23
2015-10-27 23:00:00,483.71,2308.38,337.14,11.26
2015-10-27 24:00:00,483.95,2294.54,336.45,11.21
2015-10-28 01:00:00,471.65,2288.18,334.70,10.89
2015-10-28 02:00:00,468.97,2211.89,334.24,10.78
2015-10-28 03:00:00,471.95,2168.31,333.84,10.54
2015-10-28 04:00:00,470.60,2195.03,334.58,10.67
2015-10-28 05:00:00,484.28,2213.29,334.32,10.54
2015-10-28 06:00:00,478.20,2176.72,333.17,10.48
2015-10-28 07:00:00,488.28,2262.92,334.29,10.88
2015-10-28 08:00:00,489.48,2257.47,333.57,10.59
2015-10-28 09:00:00,490.66,2274.96,335.55,10.71
2015-10-28 10:00:00,452.29,2185.57,333.89,10.14
2015-10-28 11:00:00,433.52,2060.78,331.93,9.92
2015-10-28 12:00:00,431.69,2046.82,331.63,9.90
2015-10-28 13:00:00,429.96,2028.81,332.55,9.76
2015-10-28 14:00:00,427.39,2007.05,331.85,9.69
2015-10-28 15:00:00,429.39,2033.02,331.14,9.51
2015-10-28 16:00:00,428.88,2035.82,332.85,9.54
2015-10-28 17:00:00,430.75,2015.83,330.88,9.41
2015-10-28 18:00:00,422.41,1966.06,331.50,9.16
2015-10-28 19:00:00,428.04,1992.26,331.38,9.19
2015-10-28 20:00:00,419.47,1968.12,330.56,9.29
2015-10-28 21:00:00,421.01,1987.68,330.91,9.25
2015-10-28 22:00:00,420.37,1968.89,330.62,9.45
2015-10-28 23:00:00,427.22,2005.07,331.14,9.42
2015-10-28 24:00:00,418.56,1977.30,331.64,9.45
2015-10-29 01:00:00,415.00,1986.54,330.56,9.49
2015-10-29 02:00:00,416.27,1980.74,332.10,9.60
2015-10-29 03:00:00,415.99,1992.84,330.84,9.47
2015-10-29 04:00:00,423.61,1991.93,330.73,9.64
2015-10-29 05:00:00,431.80,2015.17,331.26,9.70
2015-10-29 06:00:00,443.49,2020.41,331.90,9.85
2015-10-29 07:00:00,434.89,2048.53,332.80,9.69
2015-10-29 08:00:00,429.81,2019.04,333.05,9.66
2015-10-29 09:00:00,432.33,2048.20,331.80,9.58
2015-10-29 10:00:00,427.51,2011.57,331.96,9.70
2015-10-29 11:00:00,425.51,2012.31,331.88,9.85
2015-10-29 12:00:00,423.34,2026.53,332.50,9.64
2015-10-29 13:00:00,419.82,2023.51,333.04,9.83
2015-10-29 14:00:00,420.13,2028.57,331.44,9.69
2015-10-29 15:00:00,421.25,2054.67,332.18,9.62
2015-10-29 16:00:00,419.45,2066.15,333.26,9.61
2015-10-29 17:00:00,432.78,2066.93,332.95,9.75
2015-10-29 18:00:00,453.82,2077.42,334.40,9.91
2015-10-29 19:00:00,446.11,2063.94,332.75,9.63
2015-10-29 20:00:00,450.54,2124.66,332.32,9.61
2015-10-29 21:00:00,449.49,2146.35,332.16,9.56
2015-10-29 22:00:00,435.22,2043.25,331.78,9.59
2015-10-29 23:00:00,433.41,2038.41,331.62,9.70
2015-10-29 24:00:00,437.02,2038.22,331.93,9.74
2015-10-30 01:00:00,438.80,2044.33,331.92,9.66
2015-10-30 02:00:00,435.89,2037.51,331.84,9.75
2015-10-30 03:00:00,438.67,2042.30,331.64,9.87
2015-10-30 04:00:00,436.48,2026.11,331.26,9.55
2015-10-30 05:00:00,436.52,2014.17,332.17,9.72
2015-10-30 06:00:00,442.88,2001.41,331.14,9.65
2015-10-30 07:00:00,457.43,2011.28,332.63,9.62
2015-10-30 08:00:00,462.70,2104.07,334.10,9.63
2015-10-30 09:00:00,445.70,2050.86,331.95,9.38
2015-10-30 10:00:00,429.14,1974.00,333.09,9.29
2015-10-30 11:00:00,432.19,1998.24,331.57,9.30
2015-10-30 12:00:00,427.30,1994.51,330.93,9.36
2015-10-30 13:00:00,421.88,1981.01,330.17,9.61
2015-10-30 14:00:00,419.21,1974.16,331.14,9.52
2015-10-30 15:00:00,416.15,1967.59,328.63,9.56
2015-10-30 16:00:00,419.74,1992.52,332.38,9.70
2015-10-30 17:00:00,427.06,2038.35,333.44,9.53
2015-10-30 18:00:00,441.74,2061.95,335.82,9.47
2015-10-30 19:00:00,455.01,2078.31,335.50,9.55
2015-10-30 20:00:00,459.36,2103.76,336.59,9.74
2015-10-30 21:00:00,457.93,2101.79,333.91,9.65
2015-10-30 22:00:00,457.74,2083.73,333.19,9.44
2015-10-30 23:00:00,456.10,2085.43,333.22,9.33
2015-10-30 24:00:00,446.55,2054.74,332.23,9.50
2015-10-31 01:00:00,449.54,2033.11,332.68,9.66
2015-10-31 02:00:00,456.98,2041.00,331.54,9.52
2015-10-31 03:00:00,481.01,2188.63,334.14,9.52
2015-10-31 04:00:00,482.77,2160.11,333.11,9.66
2015-10-31 05:00:00,481.44,2084.85,333.89,9.56
2015-10-31 06:00:00,456.90,2064.01,332.09,9.29
2015-10-31 07:00:00,469.58,2082.75,332.40,9.21
2015-10-31 08:00:00,483.47,2109.68,333.00,9.28
2015-10-31 09:00:00,468.60,2069.20,335.62,9.51
2015-10-31 10:00:00,443.02,2093.85,332.59,9.52
2015-10-31 11:00:00,432.75,2055.20,332.16,9.49
2015-10-31 12:00:00,424.11,2025.43,331.84,9.48
2015-10-31 13:00:00,419.28,2021.61,331.13,9.57
2015-10-31 14:00:00,414.46,2014.76,331.07,9.27
2015-10-31 15:00:00,414.46,2013.55,331.05,9.53
2015-10-31 16:00:00,416.07,2016.79,331.20,9.48
2015-10-31 17:00:00,419.22,2031.70,331.12,9.55
2015-10-31 18:00:00,431.31,2050.12,332.00,9.51
2015-10-31 19:00:00,437.69,2049.70,332.33,9.57
2015-10-31 20:00:00,442.37,2056.30,332.93,9.61
2015-10-31 21:00:00,463.82,2103.45,332.74,9.79
2015-10-31 22:00:00,456.92,2175.01,332.35,9.53
2015-10-31 23:00:00,456.26,2137.28,332.57,9.55
2015-10-31 24:00:00,449.07,2095.97,332.70,9.48
2015-11-01 01:00:00,447.93,2065.43,332.02,9.43
2015-11-01 02:00:00,466.42,2081.14,333.31,9.39
2015-11-01 03:00:00,471.11,2087.54,333.02,9.52
2015-11-01 04:00:00,472.28,2086.83,332.15,9.65
2015-11-01 05:00:00,481.14,2081.03,333.03,9.63
2015-11-01 06:00:00,476.55,2068.94,333.41,9.70
2015-11-01 07:00:00,459.45,2061.03,333.81,9.54
2015-11-01 08:00:00,454.97,2085.59,332.09,9.58
2015-11-01 09:00:00,449.17,2180.51,331.91,9.56
2015-11-01 10:00:00,444.13,2170.27,332.28,9.57
2015-11-01 11:00:00,432.24,2111.78,331.08,9.31
2015-11-01 12:00:00,423.34,2022.02,331.55,9.48
2015-11-01 13:00:00,414.56,1989.44,331.44,9.38
2015-11-01 14:00:00,415.18,1993.72,331.91,9.20
2015-11-01 15:00:00,414.91,2000.01,332.30,9.26
2015-11-01 16:00:00,413.49,2003.98,331.66,9.15
2015-11-01 17:00:00,416.23,2018.21,331.48,9.25
2015-11-01 18:00:00,423.98,2039.38,331.59,9.27
2015-11-01 19:00:00,435.72,2056.22,331.61,9.21
2015-11-01 20:00:00,438.35,2059.94,331.50,9.21
2015-11-01 21:00:00,449.67,2064.48,332.09,9.40
2015-11-01 22:00:00,459.89,2093.10,332.56,9.20
2015-11-01 23:00:00,448.06,2095.51,331.97,9.32
2015-11-01 24:00:00,456.86,2097.49,332.66,9.28
2015-11-02 01:00:00,451.87,2072.78,331.59,9.30
2015-11-02 02:00:00,447.31,2060.64,332.44,9.38
2015-11-02 03:00:00,467.11,2085.44,332.47,9.35
2015-11-02 04:00:00,459.58,2124.04,331.70,9.30
2015-11-02 05:00:00,474.05,2109.93,333.87,9.45
2015-11-02 06:00:00,464.46,2070.02,333.80,9.32
2015-11-02 07:00:00,470.27,2116.84,333.26,9.30
2015-11-02 08:00:00,469.82,2115.90,333.79,9.15
2015-11-02 09:00:00,447.06,2076.87,333.30,9.32
2015-11-02 10:00:00,436.34,2069.66,331.84,9.28
2015-11-02 11:00:00,431.28,2034.52,331.68,9.27
2015-11-02 12:00:00,429.22,2069.35,331.36,9.49
2015-11-02 13:00:00,425.66,2004.72,331.78,9.44
2015-11-02 14:00:00,423.79,2010.18,331.72,9.52
2015-11-02 15:00:00,419.28,1994.32,331.19,9.36
2015-11-02 16:00:00,419.96,1997.51,331.48,9.34
2015-11-02 17:00:00,426.87,2035.07,331.55,9.26
2015-11-02 18:00:00,434.79,2101.00,330.90,8.99
2015-11-02 19:00:00,442.33,2098.40,331.73,9.28
2015-11-02 20:00:00,448.96,2157.45,332.30,9.39
2015-11-02 21:00:00,448.70,2174.59,332.11,9.42
2015-11-02 22:00:00,451.17,2070.19,333.94,9.38
2015-11-02 23:00:00,442.64,2027.13,331.59,9.30
2015-11-02 24:00:00,452.90,2020.06,332.32,9.15
2015-11-03 01:00:00,445.38,2011.27,332.45,9.07
2015-11-03 02:00:00,449.48,2024.83,332.83,9.29
2015-11-03 03:00:00,453.21,2013.81,331.66,9.18
2015-11-03 04:00:00,465.65,2026.05,332.10,9.23
2015-11-03 05:00:00,462.08,2024.72,332.52,9.27
2015-11-03 06:00:00,463.76,2031.26,332.68,9.34
2015-11-03 07:00:00,461.61,2029.49,332.38,9.22
2015-11-03 08:00:00,465.27,2026.58,334.38,9.16
2015-11-03 09:00:00,451.54,2033.62,332.43,9.19
2015-11-03 10:00:00,439.44,2038.41,331.25,9.28
2015-11-03 11:00:00,433.60,2049.58,331.64,9.20
2015-11-03 12:00:00,425.92,1987.56,331.29,9.27
2015-11-03 13:00:00,425.42,2068.91,331.24,9.23
2015-11-03 14:00:00,424.56,1987.77,331.95,9.13
2015-11-03 15:00:00,425.19,1998.74,330.96,9.13
2015-11-03 16:00:00,427.47,1982.47,331.68,9.16
2015-11-03 17:00:00,435.18,2000.95,330.51,9.09
2015-11-03 18:00:00,435.27,2066.90,330.80,8.99
2015-11-03 19:00:00,434.29,2061.26,331.19,8.90
2015-11-03 20:00:00,430.77,2003.82,331.85,9.04
2015-11-03 21:00:00,436.62,1984.22,331.73,9.19
2015-11-03 22:00:00,441.24,1984.60,331.34,9.12
2015-11-03 23:00:00,442.46,2036.05,330.31,9.28
2015-11-03 24:00:00,446.35,2026.92,331.71,9.23
2015-11-04 01:00:00,445.15,2019.93,330.80,9.09
2015-11-04 02:00:00,447.99,2013.12,330.95,9.11
2015-11-04 03:00:00,443.35,1993.74,331.03,9.04
2015-11-04 04:00:00,447.44,2008.28,332.15,9.21
2015-11-04 05:00:00,457.49,2007.62,332.31,9.10
2015-11-04 06:00:00,465.06,2010.51,332.62,9.18
2015-11-04 07:00:00,450.68,2237.99,330.85,9.00
2015-11-04 08:00:00,452.57,2084.43,331.51,9.05
2015-11-04 09:00:00,445.33,2055.67,331.95,9.26
2015-11-04 10:00:00,430.43,2010.67,330.60,9.14
2015-11-04 11:00:00,422.64,1994.90,330.33,39.05
2015-11-04 12:00:00,415.21,1941.63,329.66,9.24
2015-11-04 13:00:00,413.46,1937.93,329.51,8.96
2015-11-04 14:00:00,410.23,1950.23,330.81,9.02
2015-11-04 15:00:00,413.05,1989.09,331.51,8.97
2015-11-04 16:00:00,411.05,1947.67,330.69,9.17
2015-11-04 17:00:00,417.80,1965.97,330.56,9.04
2015-11-04 18:00:00,434.35,1972.48,332.14,9.08
2015-11-04 19:00:00,431.84,1992.47,331.25,9.18
2015-11-04 20:00:00,435.67,2005.16,331.50,9.19
2015-11-04 21:00:00,443.11,2033.91,331.73,9.00
2015-11-04 22:00:00,449.28,2042.80,331.24,9.14
2015-11-04 23:00:00,466.53,2072.93,332.21,9.01
2015-11-04 24:00:00,455.76,2140.37,331.67,8.99
2015-11-05 01:00:00,451.45,2120.44,331.58,9.14
2015-11-05 02:00:00,453.49,2093.63,331.93,9.25
2015-11-05 03:00:00,449.77,2057.65,331.30,9.02
2015-11-05 04:00:00,463.75,2044.95,330.81,9.22
2015-11-05 05:00:00,471.30,2041.35,333.41,9.15
2015-11-05 06:00:00,466.54,2024.88,331.60,9.20
2015-11-05 07:00:00,461.62,2036.50,332.04,9.25
2015-11-05 08:00:00,465.66,2030.82,332.86,9.19
2015-11-05 09:00:00,444.74,2108.63,332.15,8.97
2015-11-05 10:00:00,429.45,2024.64,330.67,9.14
2015-11-05 11:00:00,424.57,2088.50,330.86,9.09
2015-11-05 12:00:00,416.89,1945.91,330.33,9.12
2015-11-05 13:00:00,414.65,1956.83,330.48,9.03
2015-11-05 14:00:00,415.19,2005.47,331.46,9.29
2015-11-05 15:00:00,415.75,2000.96,331.09,9.45
2015-11-05 16:00:00,417.98,2002.95,330.95,9.30
2015-11-05 17:00:00,424.31,2025.24,332.09,9.31
2015-11-05 18:00:00,432.73,2036.82,332.78,9.47
2015-11-05 19:00:00,442.56,2054.80,332.51,9.40
2015-11-05 20:00:00,445.20,2097.85,332.93,9.45
2015-11-05 21:00:00,447.84,2064.80,332.44,9.35
2015-11-05 22:00:00,446.19,2060.10,332.20,9.30
2015-11-05 23:00:00,446.20,2049.04,331.34,9.26
2015-11-05 24:00:00,448.66,2026.65,331.47,9.10
2015-11-06 14:00:00,420.18,1963.17,331.14,9.06
2015-11-06 15:00:00,418.70,2016.83,331.51,9.30
2015-11-06 16:00:00,422.07,2036.44,332.90,9.38
2015-11-06 17:00:00,427.96,2053.25,331.81,9.43
2015-11-06 18:00:00,437.60,2057.36,331.78,9.24
2015-11-06 19:00:00,442.53,2095.10,331.18,9.17
2015-11-06 20:00:00,447.81,2178.76,331.48,9.08
2015-11-06 21:00:00,445.41,2059.51,332.75,9.30
2015-11-06 22:00:00,444.16,2020.22,331.72,9.16
2015-11-06 23:00:00,446.84,2010.68,330.61,9.00
2015-11-06 24:00:00,446.00,2005.19,331.17,9.19
2015-11-07 01:00:00,449.75,2002.57,331.32,9.09
2015-11-07 02:00:00,443.60,2003.77,331.39,9.06
2015-11-07 03:00:00,444.68,1999.44,330.82,8.92
2015-11-07 04:00:00,444.89,2029.82,331.41,9.10
2015-11-07 05:00:00,458.29,2062.55,331.32,9.25
2015-11-07 06:00:00,449.19,2021.71,332.01,9.05
2015-11-07 07:00:00,451.22,1998.08,331.53,9.11
2015-11-07 08:00:00,443.42,1983.21,331.80,9.10
2015-11-07 09:00:00,443.18,2146.05,331.54,9.21
2015-11-07 10:00:00,434.78,2003.42,331.52,9.17
2015-11-07 11:00:00,425.20,1980.52,331.01,8.85
2015-11-07 12:00:00,417.64,1913.44,330.84,8.96
2015-11-07 13:00:00,417.66,1926.95,330.61,9.03
2015-11-07 14:00:00,418.99,1945.53,330.07,8.84
2015-11-07 15:00:00,418.89,1975.74,330.17,9.17
2015-11-07 16:00:00,419.51,2014.41,331.54,9.32
2015-11-07 17:00:00,425.38,2019.90,332.29,9.19
2015-11-07 18:00:00,430.52,2011.28,331.23,9.10
2015-11-07 19:00:00,435.91,2037.85,333.16,9.25
2015-11-07 20:00:00,442.15,2201.16,331.36,9.06
2015-11-07 21:00:00,439.98,2043.07,331.04,9.25
2015-11-07 22:00:00,444.92,2031.22,331.62,9.18
2015-11-07 23:00:00,442.89,2000.86,332.00,9.14
2015-11-07 24:00:00,448.15,1987.72,331.85,9.21
2015-11-08 01:00:00,456.90,1995.81,331.96,9.04
2015-11-08 02:00:00,446.41,1989.92,331.19,9.04
2015-11-08 03:00:00,448.76,1989.68,332.14,9.06
2015-11-08 04:00:00,451.08,1975.77,331.73,9.11
2015-11-08 05:00:00,448.29,1981.20,332.83,9.27
2015-11-08 06:00:00,449.06,1995.23,331.86,9.01
2015-11-08 07:00:00,466.73,1981.62,332.06,9.14
2015-11-08 08:00:00,457.48,1975.51,331.93,9.18
2015-11-08 09:00:00,445.45,2005.49,331.09,9.20
2015-11-08 10:00:00,442.23,2042.52,331.09,9.16
2015-11-08 11:00:00,432.56,2062.25,331.43,9.17
2015-11-08 12:00:00,427.84,1991.70,331.23,9.14
2015-11-08 13:00:00,423.08,1943.17,330.23,9.06
2015-11-08 14:00:00,421.42,1938.68,330.10,9.12
2015-11-08 15:00:00,419.73,1928.20,330.94,9.13
2015-11-08 16:00:00,418.15,1925.86,330.73,9.00
2015-11-08 17:00:00,421.34,1932.16,331.34,9.12
2015-11-08 18:00:00,429.11,2027.04,331.64,8.90
2015-11-08 19:00:00,438.18,2017.73,331.83,8.99
2015-11-08 20:00:00,439.78,2028.84,332.16,8.98
2015-11-08 21:00:00,447.02,2041.41,331.81,9.05
2015-11-08 22:00:00,445.51,2109.07,331.68,9.08
2015-11-08 23:00:00,451.12,2096.77,331.43,9.14
2015-11-08 24:00:00,452.77,2162.50,331.80,9.13
2015-11-09 01:00:00,457.18,2276.04,331.40,9.05
2015-11-09 02:00:00,452.15,2098.32,331.71,8.95
2015-11-09 03:00:00,454.48,2017.16,331.40,9.08
2015-11-09 04:00:00,453.11,1996.26,331.21,9.02
2015-11-09 05:00:00,456.28,1992.55,331.59,9.10
2015-11-09 06:00:00,447.23,2015.55,331.31,8.76
2015-11-09 07:00:00,465.30,2035.15,331.42,9.05
2015-11-09 08:00:00,474.31,2053.71,331.70,9.26
2015-11-09 09:00:00,461.18,2056.65,331.66,9.23
2015-11-09 10:00:00,459.54,2028.95,332.59,9.00
2015-11-09 11:00:00,446.31,1992.91,332.88,9.17
2015-11-09 12:00:00,440.56,2071.17,332.15,9.08
2015-11-09 13:00:00,434.60,2099.13,331.80,9.21
2015-11-09 14:00:00,429.14,2091.93,332.56,9.09
2015-11-09 15:00:00,428.39,2116.45,332.84,9.03
2015-11-09 16:00:00,430.40,2170.32,334.24,9.18
2015-11-09 17:00:00,433.58,2161.52,332.08,9.25
2015-11-09 18:00:00,445.51,2166.01,332.49,9.23
2015-11-09 19:00:00,453.03,2235.66,332.37,9.28
2015-11-09 20:00:00,451.12,2173.10,332.10,9.20
2015-11-09 21:00:00,455.09,2178.80,331.84,9.19
2015-11-09 22:00:00,454.61,2177.03,333.04,9.15
2015-11-09 23:00:00,461.60,2161.78,332.08,9.25
2015-11-09 24:00:00,470.79,2157.17,333.45,9.35
2015-11-10 01:00:00,459.37,2216.50,333.04,9.12
2015-11-10 02:00:00,473.40,2165.00,333.63,9.22
2015-11-10 03:00:00,472.67,2125.66,333.02,9.23
2015-11-10 04:00:00,475.09,2112.92,331.78,9.35
2015-11-10 05:00:00,466.58,2132.87,331.72,9.37
2015-11-10 06:00:00,480.50,2135.34,332.37,9.28
2015-11-10 07:00:00,474.48,2142.32,332.88,9.52
2015-11-10 08:00:00,504.61,2142.00,333.98,9.66
2015-11-10 09:00:00,488.88,2151.21,333.22,9.55
2015-11-10 10:00:00,464.32,2102.11,332.40,9.20
2015-11-10 11:00:00,448.49,2044.07,332.74,9.50
2015-11-10 12:00:00,441.67,2046.61,332.06,9.39
2015-11-10 13:00:00,441.93,2046.31,332.69,9.20
2015-11-10 14:00:00,433.11,2020.05,331.87,9.19
2015-11-10 15:00:00,433.23,2045.80,332.12,9.24
2015-11-10 16:00:00,431.88,2055.65,332.12,9.22
2015-11-10 17:00:00,433.91,2044.38,332.84,9.32
2015-11-10 18:00:00,440.79,2040.43,332.01,9.57
2015-11-10 19:00:00,448.15,2055.70,332.29,9.27
2015-11-10 20:00:00,453.86,2088.57,332.47,9.45
2015-11-10 21:00:00,462.58,2093.60,331.92,9.53
2015-11-10 22:00:00,470.25,2118.22,332.45,9.34
2015-11-10 23:00:00,475.20,2199.17,332.04,9.28
2015-11-10 24:00:00,475.96,2181.02,333.00,9.22
2015-11-11 01:00:00,483.20,2214.94,334.54,9.46
2015-11-11 02:00:00,499.53,2225.20,335.32,9.21
2015-11-11 03:00:00,503.61,2338.07,333.92,9.33
2015-11-11 04:00:00,502.67,2355.32,334.75,9.57
2015-11-11 05:00:00,509.64,2297.41,334.95,9.58
2015-11-11 06:00:00,518.34,2251.92,334.56,9.53
2015-11-11 07:00:00,505.20,2229.03,333.37,9.60
2015-11-11 08:00:00,520.64,2229.03,335.42,9.57
2015-11-11 09:00:00,495.13,2206.62,334.72,9.49
2015-11-11 10:00:00,472.85,2263.61,333.82,9.47
2015-11-11 11:00:00,465.99,2288.18,333.70,9.47
2015-11-11 12:00:00,446.67,2057.55,332.33,9.30
2015-11-11 13:00:00,443.53,2053.13,333.06,9.30
2015-11-11 14:00:00,437.12,2036.56,331.75,9.43
2015-11-11 15:00:00,439.67,2090.12,332.97,9.65
2015-11-11 16:00:00,436.77,2118.12,332.39,9.59
2015-11-11 17:00:00,434.28,2128.60,333.08,9.40
2015-11-11 18:00:00,437.39,2116.84,332.30,9.34
2015-11-11 19:00:00,450.48,2131.06,332.60,9.54
2015-11-11 20:00:00,456.36,2148.94,332.99,9.48
2015-11-11 21:00:00,467.24,2288.91,333.02,9.43
2015-11-11 22:00:00,468.95,2289.20,333.91,9.45
2015-11-11 23:00:00,469.99,2174.05,333.68,9.44
2015-11-11 24:00:00,467.70,2213.25,334.01,9.48
2015-11-12 01:00:00,465.65,2232.19,332.48,9.41
2015-11-12 02:00:00,463.68,2068.46,332.63,9.37
2015-11-12 03:00:00,455.10,2047.28,332.37,9.28
2015-11-12 04:00:00,452.56,2024.67,332.49,9.48
2015-11-12 05:00:00,451.52,2002.59,330.73,9.22
2015-11-12 06:00:00,462.83,2010.87,332.67,9.13
2015-11-12 07:00:00,467.93,2040.43,332.92,9.25
2015-11-12 08:00:00,468.86,2005.20,332.86,9.33
2015-11-12 09:00:00,448.27,2018.66,332.41,9.29
2015-11-12 10:00:00,442.19,2007.17,331.13,9.22
2015-11-12 11:00:00,438.56,2036.77,331.26,9.06
2015-11-12 12:00:00,434.14,2034.82,331.95,9.11
2015-11-12 13:00:00,427.98,1976.44,332.20,9.10
2015-11-12 14:00:00,424.35,1946.24,331.81,9.13
2015-11-12 15:00:00,427.83,1950.05,331.46,9.11
2015-11-12 16:00:00,425.83,1955.75,331.21,9.00
2015-11-12 17:00:00,438.60,2007.72,332.46,9.30
2015-11-12 18:00:00,446.03,2032.26,331.24,9.18
2015-11-12 19:00:00,441.20,2024.86,332.00,9.24
2015-11-12 20:00:00,447.25,2079.35,332.86,8.94
2015-11-12 21:00:00,456.72,2148.89,332.07,9.09
2015-11-12 22:00:00,452.13,2081.52,332.40,9.01
2015-11-12 23:00:00,460.25,2063.80,331.87,8.90
2015-11-12 24:00:00,463.04,2128.76,332.88,9.02
2015-11-13 01:00:00,485.04,2106.39,332.38,9.22
2015-11-13 02:00:00,471.87,2115.32,333.29,9.29
2015-11-13 03:00:00,456.21,2044.46,331.11,9.05
2015-11-13 04:00:00,454.70,2022.79,332.06,9.00
2015-11-13 05:00:00,456.19,2014.36,332.43,9.05
2015-11-13 06:00:00,449.50,2001.20,332.08,9.08
2015-11-13 07:00:00,475.39,2000.33,332.28,9.24
2015-11-13 08:00:00,460.67,2012.80,332.46,9.11
2015-11-13 09:00:00,450.63,2092.82,332.00,9.07